Location: Chmeln�
(49.6483°N, 14.9871°E)
Time: 09:21:01
(UTC+00:00)

Cosmos 2266 Rocket - Pass Details

Date: 18 September 2020
Orbit: 934 x 1008 km, 82.9° (Epoch: 27 October)

Event Time Altitude Azimuth Distance (km) Brightness Sun altitude
Rises 20:58:03 0° 348° (NNW) 3,618 7.9 -33.2°
Reaches altitude 10° 21:00:34 10° 345° (NNW) 2,664 7.0 -33.4°
Enters shadow 21:05:32 55° 310° (NW) 1,114 4.4 -33.9°
